Flag for U.S.A. Weather past 2 weeks in Shreveport, Louisiana, U.S.A.

Now
87 °F

Sunny.


Feels Like: 94 °F
Forecast: 80 / 98 °F
Wind: 3 mph from South

Location: Shreveport Regional Airport

Current Time: Jul 28, 2015 at 9:56:51 PM

Latest Report: Jul 28, 2015 at 8:56 PM


Visibility: 10 mi

Pressure: 29.91 "Hg

Humidity: 61%

Dew point: 72 °F

Location of ShreveportLocation

Historic Weather in Shreveport — Graph

°F

Shreveport temperature yesterday

Maximum temperature yesterday: 98 °F (at 3:56 PM)
Minimum temperature yesterday: 74 °F (at 5:56 AM)
Average temperature yesterday: 87 °F

Past Weeks' High & Low Weather Summary

 TemperatureHumidityPressure
High101 °F (Jul 26, 3:56 PM)94% (Jul 27, 5:56 AM)30.04 "Hg (Jul 27, 5:56 AM)
Low74 °F (Jul 27, 5:56 AM)29% (Jul 24, 3:56 PM)29.80 "Hg (Jul 14, 6:56 PM)
Average87 °F63%29.92 "Hg
* Reported Jul 13 7:56 PM — Jul 28 7:56 PM, Shreveport, Weather by CustomWeather, © 2015

Note: Actual official high and low records may vary slightly from our data, if they occured in-between our weather recording intervals... More about our weather records

Advertising

Shreveport weather history for previous 24 hours

 ConditionsComfort  
Time TempWeatherWind HumidityBarometerVisibility
7:56 PM
Tue, Jul 28
92 °FSunny.5 mph47%29.91 "Hg10 mi
6:56 PM96 °FSunny.6 mph38%29.91 "Hg10 mi
5:56 PM98 °FPassing clouds.8 mph38%29.92 "Hg10 mi
4:56 PM99 °FScattered clouds.8 mph35%29.93 "Hg10 mi
3:56 PM97 °FScattered clouds.3 mph36%29.95 "Hg10 mi
2:56 PM99 °FScattered clouds.10 mph34%29.96 "Hg10 mi
1:56 PM96 °FSunny.7 mph38%29.97 "HgN/A
12:56 PM96 °FPassing clouds.7 mph41%29.98 "Hg10 mi
11:56 AM94 °FPassing clouds.3 mph48%29.98 "Hg10 mi
10:56 AM91 °FSunny.6 mph56%29.98 "Hg10 mi
9:56 AM88 °FSunny.5 mph63%29.98 "Hg10 mi
8:56 AM85 °FSunny.7 mph70%29.99 "Hg10 mi
7:56 AM81 °FSunny.5 mph79%29.97 "Hg10 mi
6:56 AM77 °FClear.No wind88%29.96 "Hg10 mi
5:56 AM79 °FClear.3 mph84%29.93 "Hg10 mi
4:56 AM80 °FClear.7 mph81%29.92 "Hg10 mi
3:56 AM81 °FClear.7 mph79%29.91 "Hg10 mi
2:56 AM82 °FClear.8 mph77%29.91 "Hg10 mi
1:56 AM83 °FClear.7 mph74%29.93 "Hg10 mi
12:56 AM84 °FClear.8 mph72%29.93 "Hg10 mi
11:56 PM
Mon, Jul 27
83 °FClear.5 mph77%29.93 "Hg10 mi
10:56 PM85 °FClear.No wind70%29.92 "Hg10 mi
9:56 PM88 °FClear.5 mph61%29.90 "Hg10 mi
Weather by CustomWeather, © 2015

See weather overviewHow to use our weather pages